EHI
0 0 0 0 0 0 0 0 0 0 0 0 0 0 0 0 0 0 0 0 0 0 0 0 0 0 0 0 0 0 0 0 0 0 1 1 1 0 0 0 0 0 1 1
0 0 0 0 0 0 0 0 0 0 0 0 0 0 0 0 0 0 0 0 0 0 0 0 0 0 0 0 0 0 0 0 0 1 2 1 0 0 0 0 0 0 0 1
0 0 0 0 0 0 0 0 0 0 0 0 0 0 0 0 0 0 0 0 0 0 0 0 0 0 0 0 0 0 0 0 0 1 2 2 1 0 0 0 0 0 0 0
0 0 0 0 0 0 0 0 0 0 0 0 0 0 0 0 0 0 0 0 0 0 0 0 0 0 0 0 0 0 0 0 0 1 2 2 1 0 0 0 0 0 0 0
0 0 0 0 0 0 0 0 0 0 0 0 0 0 0 0 0 0 0 0 0 0 0 0 0 0 0 0 0 0 0 0 0 1 2 2 1 0 0 0 0 0 0 0
0 0 0 0 0 0 0 0 0 0 0 0 0 0 0 0 0 0 0 0 0 0 0 0 0 0 0 0 0 0 0 0 0 1 2 2 1 0 0 0 0 0 0 0
0 0 0 0 0 0 0 0 0 0 0 0 0 0 0 0 0 0 0 0 0 0 0 0 0 0 0 0 0 0 0 0 0 0 1 1 0 0 0 0 0 0 0 0
0 0 0 0 0 0 0 0 0 0 0 0 0 0 0 0 0 0 0 0 0 0 0 0 0 0 0 0 0 0 0 0 0 0 0 0 0 0 0 0 0 0 0 0
0 0 0 0 0 0 0 0 0 0 0 0 0 0 0 0 0 0 0 0 0 0 0 0 0 0 0 0 0 0 0 0 0 0 0 0 0 0 0 0 0 0 0 0
0 0 0 0 0 0 0 0 0 0 0 0 0 0 0 0 0 0 0 0 0 0 0 0 0 0 0 0 0 0 0 0 0 0 0 0 0 0 0 0 0 0 0 0
0 0 0 0 0 0 0 0 0 0 0 0 0 0 0 0 0 0 0 0 0 0 0 0 0 0 0 0 0 0 0 0 0 0 0 0 0 0 0 0 0 0 0 0
0 0 0 0 0 0 0 0 0 0 0 0 0 0 0 0 0 0 0 0 0 0 0 0 0 0 0 0 0 0 0 0 0 0 0 0 0 0 0 0 0 0 0 0
0 0 0 0 0 0 0 0 0 0 0 0 0 0 0 0 0 0 0 0 0 0 0 0 0 0 0 0 0 0 0 0 0 0 0 0 0 0 0 0 0 0 0 0
0 0 0 0 0 0 0 0 0 0 0 0 0 0 0 0 0 0 0 0 0 0 0 0 0 0 0 0 0 0 0 0 0 0 0 0 0 0 0 0 0 0 0 0
0 0 0 0 0 0 0 0 0 0 0 0 0 0 0 0 0 0 0 0 0 0 0 0 0 0 0 0 0 0 0 0 0 0 0 0 0 0 0 0 0 0 0 0
0 0 0 0 0 0 0 0 0 0 0 0 0 0 0 0 0 0 0 0 0 0 0 0 0 0 0 0 0 0 0 0 0 0 0 0 0 0 0 0 0 0 0 0
0 0 0 0 0 0 0 0 0 0 0 0 0 0 0 0 0 0 0 0 0 0 0 0 0 0 0 0 0 0 0 0 0 0 0 0 0 0 0 0 0 0 0 0
0 0 0 0 0 0 0 0 0 0 0 0 0 0 0 0 0 0 0 0 0 0 0 0 0 0 0 0 0 0 0 0 0 0 0 0 0 0 0 0 0 0 0 0
0 0 0 0 0 0 0 0 0 0 0 0 0 0 0 0 0 0 0 0 0 0 0 0 0 0 0 0 0 0 0 0 0 0 0 0 0 0 0 0 0 0 0 0
0 0 0 0 0 0 0 0 0 0 0 0 0 0 0 0 0 0 0 0 0 0 0 0 0 0 0 0 0 0 0 0 0 0 0 0 0 0 0 0 0 0 0 0
0 0 0 0 0 0 0 0 0 0 0 0 0 0 0 0 0 0 0 0 0 0 0 0 0 0 0 0 0 0 0 0 0 0 0 0 0 0 0 0 0 0 0 0
0 0 0 0 0 0 0 0 0 0 0 0 0 0 0 0 0 0 0 0 0 0 0 0 0 0 0 0 0 0 0 0 0 0 0 0 0 0 0 0 0 0 0 0
0 0 0 0 0 0 0 0 0 0 0 0 0 0 0 0 0 0 0 0 0 0 0 0 0 0 0 0 0 0 0 0 0 0 0 0 0 0 0 0 0 0 0 0
0 0 0 0 0 0 0 0 0 0 0 0 0 0 0 0 0 0 0 0 0 0 0 0 0 0 0 0 0 0 0 0 0 0 0 0 0 0 0 0 0 0 0 0
0 0 0 0 0 0 0 0 0 0 0 0 0 0 0 0 0 0 0 0 0 0 0 0 0 0 0 0 0 0 0 0 0 0 0 0 0 0 0 0 0 0 0 0
0 0 0 0 0 0 0 0 0 0 0 0 0 0 0 0 0 0 0 0 0 0 0 0 0 0 0 0 0 0 0 0 0 0 0 0 0 0 0 0 0 0 0 0
Wind_Speed
0 2 2 2 2 3 3 5 6 6 4 6 8 9 7 5 5 5 4 4 4 3 3 3 3 3 3 2 2 2 1 1 1 1 1 1 2 2 1 1 1 1 1 2
3 3 2 2 2 3 4 5 6 5 4 5 8 11 8 6 6 5 5 4 4 4 4 4 4 3 3 3 3 3 2 2 1 2 2 2 2 2 1 1 1 1 1 2
4 1 2 3 2 3 4 5 6 6 6 4 6 8 5 4 4 4 5 4 4 3 4 4 4 3 3 3 3 3 3 3 2 2 1 1 1 2 2 2 1 1 2 2
2 2 3 3 3 4 4 4 6 6 6 3 3 6 3 4 4 3 4 4 4 3 4 4 3 4 4 3 3 3 3 3 3 2 2 3 3 3 3 2 2 2 2 2
2 2 3 4 2 3 3 4 5 6 6 5 4 6 4 3 4 4 4 4 4 4 4 4 4 4 4 3 3 3 3 3 3 3 3 4 4 3 2 3 3 2 2 2
1 1 2 2 1 2 2 3 3 4 4 5 3 5 5 2 4 4 4 4 4 5 4 4 4 4 4 3 3 3 4 4 3 3 4 4 5 4 4 4 3 2 2 2
2 2 1 1 1 2 2 2 2 3 4 3 1 5 6 2 2 3 4 4 4 4 4 5 5 4 4 4 4 4 4 4 4 4 4 5 5 5 5 4 3 3 2 2
3 3 2 2 2 2 3 3 2 4 4 3 3 6 3 1 2 2 3 4 4 4 4 5 5 5 5 5 5 5 5 4 4 4 4 4 5 4 3 4 4 3 3 2
3 2 1 0 1 2 3 2 2 3 3 5 5 5 5 2 3 3 4 4 4 5 5 5 5 5 5 5 5 5 5 5 4 4 4 4 4 4 4 4 4 3 3 2
2 2 1 1 2 0 2 2 3 3 3 5 5 5 4 3 4 4 5 5 5 6 5 5 5 5 5 5 4 4 4 4 4 5 4 3 4 4 4 3 3 3 3 3
2 2 1 2 4 4 3 3 3 3 3 4 5 3 1 3 4 5 5 5 5 5 5 5 5 5 5 5 4 4 4 4 4 4 4 3 4 4 3 2 3 3 3 3
2 2 3 3 0 2 4 4 5 4 4 4 5 4 2 3 3 4 5 5 5 5 5 5 5 5 5 5 4 4 4 4 4 4 3 3 3 3 2 2 2 2 2 2
3 2 2 2 3 2 3 4 4 3 3 5 6 5 1 4 5 5 5 6 5 5 5 5 4 4 5 5 5 4 4 4 4 3 3 3 3 3 2 2 2 2 2 2
2 3 5 6 3 2 5 5 6 6 6 7 9 10 8 8 8 8 7 6 5 5 5 5 5 5 5 5 5 5 5 4 4 3 3 3 3 2 2 2 2 1 2 2
2 3 5 7 6 5 7 8 8 10 10 9 10 11 11 9 9 8 7 6 6 5 5 5 5 5 5 5 5 5 5 4 4 3 3 3 2 2 2 1 1 1 1 1
1 2 3 5 4 5 7 9 10 11 11 12 13 14 10 8 6 7 6 5 6 6 6 6 6 6 5 5 5 5 4 4 3 3 3 3 2 2 1 1 0 0 0 0
3 3 3 4 3 4 9 9 10 8 9 9 12 11 6 6 6 7 6 6 6 7 7 6 6 6 5 5 5 5 4 3 3 3 3 2 2 2 1 0 0 0 0 0
4 3 2 3 2 7 3 1 5 9 10 10 10 9 7 7 7 7 5 5 7 6 6 6 6 6 5 5 4 4 3 2 3 3 2 2 2 2 1 0 0 0 0 0
3 4 2 2 4 9 5 2 3 6 8 7 9 9 6 5 5 5 3 4 6 6 6 5 5 5 5 4 4 3 2 2 2 2 2 2 2 1 1 0 1 0 0 0
2 2 3 3 5 7 2 1 0 3 6 2 5 7 5 3 5 4 2 4 5 5 4 4 4 4 3 4 3 2 2 2 2 2 3 2 1 1 1 1 1 0 0 0
4 4 6 6 7 9 2 2 2 3 4 2 4 5 4 5 5 4 3 4 4 4 4 3 3 3 3 3 2 2 1 2 2 2 2 2 1 1 1 1 0 0 0 1
7 7 7 6 7 8 4 5 6 4 3 3 4 4 5 6 5 4 4 3 3 3 3 3 3 3 3 3 2 2 2 2 2 2 2 2 2 1 1 0 0 0 0 0
8 7 5 8 7 2 5 6 4 3 4 4 4 5 5 5 5 5 4 3 3 3 3 3 3 3 3 2 1 2 2 2 1 1 2 2 2 2 1 0 1 1 0 0
6 4 5 8 10 8 7 7 6 6 6 6 5 5 5 5 5 5 4 3 3 3 3 3 3 3 3 3 2 2 2 2 1 1 1 1 1 1 1 1 1 1 0 0
6 6 6 10 10 8 8 9 8 6 6 5 5 5 5 5 5 4 4 3 3 3 3 3 3 3 3 3 3 2 2 1 1 1 1 1 1 1 1 1 1 1 1 0
8 10 9 9 6 6 5 4 6 6 6 6 5 5 4 4 5 4 4 3 3 3 3 3 3 3 3 3 3 2 2 1 1 1 1 1 0 0 1 1 1 3 2 3
Wind_Direction
106 180 187 212 232 258 240 246 270 286 292 272 259 266 269 261 249 258 268 273 271 286 308 323 323 314 307 303 299 294 299 310 313 318 288 275 272 268 264 275 272 280 303 285
182 203 215 210 216 229 235 250 282 294 298 276 269 269 263 242 240 250 260 269 272 291 315 325 322 325 312 301 296 293 287 283 286 275 279 268 275 266 267 272 286 288 294 289
210 132 185 208 204 230 240 251 275 288 303 250 274 265 228 225 232 241 258 272 281 291 302 309 312 313 311 309 300 291 283 267 262 266 283 259 251 253 247 249 260 287 284 275
209 204 208 214 225 250 246 255 265 267 275 262 265 283 240 227 234 251 263 271 278 290 293 299 306 309 305 303 296 283 277 265 261 253 247 252 246 247 258 259 260 267 281 281
184 193 210 226 244 248 262 278 265 257 256 265 232 254 265 210 250 278 280 280 287 291 295 304 308 308 306 308 297 287 283 273 265 257 251 258 251 254 256 255 252 260 260 271
218 219 247 261 293 240 260 270 245 225 232 248 231 246 270 225 255 287 296 296 302 303 305 309 311 308 309 315 308 293 282 277 267 260 258 257 251 247 245 244 242 251 249 250
216 196 195 222 225 184 241 254 261 237 231 248 168 247 260 259 263 275 280 293 306 314 310 305 310 311 310 311 310 297 288 283 277 269 263 256 256 245 239 239 240 246 245 245
226 215 183 205 233 220 213 246 264 275 277 295 233 249 273 357 300 287 284 290 304 313 313 311 311 312 303 300 299 294 289 285 281 274 268 260 263 252 243 238 242 245 249 252
230 238 100 237 276 218 191 220 304 276 287 271 252 265 274 273 291 298 299 301 305 311 313 316 319 320 317 310 305 298 292 290 286 275 267 262 267 257 252 242 240 242 249 246
240 241 232 216 191 145 292 167 192 226 266 272 269 263 272 277 288 300 301 298 308 313 318 319 319 322 319 314 308 305 295 292 290 280 268 262 267 262 252 244 242 242 243 239
225 227 224 211 220 207 174 185 220 235 266 269 279 273 7 286 298 296 296 302 304 307 313 316 319 324 324 318 314 308 305 302 297 287 269 268 272 270 252 238 243 246 245 238
201 234 248 241 302 304 240 225 208 232 235 242 271 281 57 313 305 299 303 306 308 309 314 317 319 324 323 319 315 312 311 307 302 298 294 286 274 268 267 257 251 250 248 244
170 196 251 216 187 195 232 235 235 246 243 236 250 265 50 324 315 312 308 310 309 313 318 322 321 322 322 320 318 315 313 310 304 306 308 296 286 282 274 274 261 239 237 240
171 211 236 255 292 217 236 234 221 218 234 246 248 271 292 308 311 313 311 311 311 309 313 315 314 316 318 317 316 314 315 315 311 305 301 297 286 287 289 282 263 242 236 235
209 236 245 268 280 260 250 246 226 224 238 250 265 274 286 296 299 302 305 309 310 309 309 308 309 310 313 316 315 314 317 320 319 316 307 300 298 299 291 283 269 261 257 251
200 232 250 266 266 269 264 255 237 238 245 251 267 275 283 295 296 296 301 303 302 305 307 306 305 307 307 308 306 309 315 318 318 308 302 308 307 294 288 291 270 257 306 285
185 193 243 267 300 280 261 243 223 228 231 234 250 267 284 290 292 292 297 295 294 299 303 303 302 299 300 301 300 300 307 313 309 303 305 313 303 291 286 272 188 105 336 332
185 187 230 278 282 246 268 66 223 239 247 240 254 271 276 284 293 286 275 284 291 296 300 303 304 304 304 303 299 298 304 305 299 301 311 315 303 292 298 313 282 296 295 273
202 185 201 232 261 273 269 217 217 236 264 245 254 268 282 303 291 267 265 276 290 295 297 300 302 299 300 303 303 297 296 301 304 315 318 312 302 296 291 255 260 273 255 258
147 190 206 213 245 255 269 80 302 231 262 248 253 262 269 272 279 299 314 301 303 307 309 311 312 310 308 312 307 288 287 297 310 315 319 322 308 292 284 271 254 248 197 358
173 189 212 226 244 264 258 147 174 227 296 327 265 262 245 247 281 312 299 293 299 306 313 315 310 308 314 313 304 293 289 302 315 322 332 341 329 299 281 278 263 354 76 54
194 192 201 202 227 250 149 157 205 265 320 291 282 274 260 267 288 296 287 289 301 311 315 317 315 317 323 315 302 301 305 323 334 341 352 355 351 347 301 262 90 65 70 65
217 214 213 213 234 299 179 213 246 278 273 280 285 286 271 270 275 286 284 286 291 297 306 310 312 316 321 318 308 300 314 329 338 350 356 6 12 9 11 62 113 107 78 51
224 213 235 256 261 264 251 255 259 259 265 273 276 277 268 268 272 276 280 286 293 293 294 301 303 307 313 318 315 310 315 315 317 337 350 10 23 23 25 24 38 61 42 60
229 192 225 253 269 280 257 242 247 252 258 266 275 272 263 262 267 269 275 280 282 286 291 293 290 294 302 310 314 323 322 316 319 332 349 6 23 31 34 29 20 360 5 348
212 206 215 244 246 239 264 254 233 236 248 253 259 268 263 251 254 260 266 268 268 272 279 284 289 295 305 310 313 321 319 299 288 304 328 341 352 32 71 69 52 46 39 33